• In Latvia
  • List of Countries
  • For 7 days
  • Water Temperature
  • Satellite Maps
  • Weather Map
  • Weather Widgets
  • user-avatar
    Login

    Hourly Weather Darwin

    Today, 18 October, Wednesday

    Time Temperature Precipitation Wind Pressure Humidity
    00:00 +31°C° 0 mm 3 mps 755 mmHg 81%
    01:00 +30°C° 0.8 mm 3 mps 755 mmHg 81%
    02:00 +30°C° 0.8 mm 3 mps 755 mmHg 81%
    03:00 +30°C° 0 mm 3 mps 755 mmHg 82%
    04:00 +30°C° 1 mm 3 mps 755 mmHg 81%
    05:00 +29°C° 1 mm 2 mps 755 mmHg 81%
    06:00 +29°C° 1 mm 2 mps 756 mmHg 80%
    07:00 +31°C° 0.2 mm 2 mps 756 mmHg 71%
    08:00 +33°C° 0.2 mm 1 mps 756 mmHg 62%
    09:00 +32°C° 0 mm 1 mps 757 mmHg 66%
    10:00 +34°C° 0.4 mm 2 mps 756 mmHg 61%
    11:00 +35°C° 0.4 mm 2 mps 756 mmHg 56%
    12:00 +36°C° 0.4 mm 2 mps 755 mmHg 51%
    13:00 +37°C° 0 mm 2 mps 755 mmHg 47%
    14:00 +37°C° 0 mm 3 mps 754 mmHg 43%
    15:00 +38°C° 0 mm 3 mps 754 mmHg 39%
    16:00 +37°C° 0.1 mm 3 mps 754 mmHg 43%
    17:00 +36°C° 0.1 mm 2 mps 754 mmHg 47%
    18:00 +35°C° 0.1 mm 2 mps 754 mmHg 50%
    19:00 +34°C° 0 mm 2 mps 755 mmHg 54%
    20:00 +34°C° 0 mm 2 mps 755 mmHg 58%
    21:00 +32°C° 0 mm 2 mps 756 mmHg 62%
    22:00 +31°C° 0.8 mm 2 mps 756 mmHg 63%
    23:00 +31°C° 0.8 mm 3 mps 756 mmHg 64%

    Tomorrow, 19 October, Thursday

    Time Temperature Precipitation Wind Pressure Humidity
    00:00 +31°C° 0.8 mm 3 mps 756 mmHg 66%
    01:00 +30°C° 0.1 mm 3 mps 756 mmHg 68%
    02:00 +30°C° 0.1 mm 4 mps 756 mmHg 71%
    03:00 +30°C° 0.1 mm 4 mps 756 mmHg 73%
    04:00 +29°C° 0.6 mm 4 mps 756 mmHg 74%
    05:00 +29°C° 0.6 mm 4 mps 756 mmHg 74%
    06:00 +29°C° 0.6 mm 4 mps 756 mmHg 75%
    07:00 +30°C° 0 mm 4 mps 757 mmHg 67%
    08:00 +33°C° 0 mm 4 mps 757 mmHg 59%
    09:00 +35°C° 0 mm 4 mps 757 mmHg 52%
    10:00 +36°C° 0 mm 3 mps 757 mmHg 46%
    11:00 +38°C° 0 mm 3 mps 756 mmHg 40%
    12:00 +39°C° 0 mm 3 mps 756 mmHg 34%
    13:00 +38°C° 0 mm 3 mps 755 mmHg 36%
    14:00 +37°C° 0 mm 4 mps 755 mmHg 37%
    15:00 +36°C° 0 mm 4 mps 754 mmHg 39%
    16:00 +36°C° 0 mm 4 mps 754 mmHg 40%
    17:00 +36°C° 0 mm 4 mps 755 mmHg 41%
    18:00 +35°C° 0 mm 3 mps 755 mmHg 43%
    19:00 +34°C° 0 mm 4 mps 755 mmHg 50%
    20:00 +33°C° 0 mm 4 mps 756 mmHg 58%
    21:00 +32°C° 0 mm 5 mps 756 mmHg 65%
    22:00 +32°C° 0.5 mm 4 mps 756 mmHg 67%
    23:00 +31°C° 0.5 mm 3 mps 757 mmHg 69%

    Day after tomorrow, 20 October, Friday

    Time Temperature Precipitation Wind Pressure Humidity
    00:00 +30°C° 0.5 mm 3 mps 757 mmHg 71%
    01:00 +30°C° 0 mm 3 mps 757 mmHg 72%
    02:00 +30°C° 0 mm 2 mps 757 mmHg 72%
    03:00 +29°C° 0 mm 2 mps 757 mmHg 72%
    04:00 +29°C° 0 mm 2 mps 757 mmHg 73%
    05:00 +29°C° 0 mm 2 mps 757 mmHg 73%
    06:00 +29°C° 0 mm 2 mps 758 mmHg 74%
    07:00 +31°C° 0 mm 2 mps 758 mmHg 65%
    08:00 +33°C° 0 mm 1 mps 758 mmHg 56%
    09:00 +33°C° 0 mm 0 mps 759 mmHg 47%
    10:00 +37°C° 0 mm 1 mps 758 mmHg 42%
    11:00 +40°C° 0 mm 1 mps 758 mmHg 37%
    12:00 +41°C° 0 mm 2 mps 758 mmHg 33%
    13:00 +39°C° 0 mm 3 mps 757 mmHg 37%
    14:00 +38°C° 0 mm 3 mps 756 mmHg 42%
    15:00 +36°C° 0 mm 4 mps 756 mmHg 47%
    16:00 +35°C° 0 mm 4 mps 756 mmHg 50%
    17:00 +35°C° 0 mm 5 mps 756 mmHg 53%
    18:00 +34°C° 0 mm 5 mps 756 mmHg 56%
    19:00 +33°C° 0 mm 4 mps 757 mmHg 57%
    20:00 +33°C° 0 mm 4 mps 757 mmHg 59%
    21:00 +32°C° 0 mm 4 mps 758 mmHg 61%
    22:00 +32°C° 0.6 mm 4 mps 758 mmHg 62%
    23:00 +31°C° 0.6 mm 3 mps 758 mmHg 63%

    21 October, Saturday

    Time Temperature Precipitation Wind Pressure Humidity
    00:00 +31°C° 0.6 mm 3 mps 758 mmHg 64%
    01:00 +30°C° 0.7 mm 3 mps 757 mmHg 66%
    02:00 +30°C° 0.7 mm 2 mps 757 mmHg 69%
    03:00 +29°C° 0.7 mm 2 mps 757 mmHg 71%
    04:00 +29°C° 0.2 mm 2 mps 757 mmHg 71%
    05:00 +29°C° 0.2 mm 2 mps 758 mmHg 72%
    06:00 +29°C° 0.2 mm 2 mps 758 mmHg 72%
    07:00 +31°C° 0 mm 2 mps 758 mmHg 65%
    08:00 +32°C° 0 mm 2 mps 759 mmHg 57%
    09:00 +35°C° 0 mm 3 mps 759 mmHg 50%
    10:00 +36°C° 0 mm 3 mps 759 mmHg 46%
    11:00 +37°C° 0 mm 3 mps 758 mmHg 42%
    12:00 +39°C° 0 mm 3 mps 758 mmHg 38%
    13:00 +38°C° 0 mm 3 mps 757 mmHg 41%
    14:00 +37°C° 0 mm 3 mps 756 mmHg 43%
    15:00 +36°C° 0 mm 3 mps 756 mmHg 45%
    16:00 +36°C° 0 mm 3 mps 756 mmHg 48%
    17:00 +35°C° 0 mm 3 mps 756 mmHg 51%
    18:00 +34°C° 0 mm 2 mps 756 mmHg 54%
    19:00 +34°C° 0 mm 3 mps 756 mmHg 57%
    20:00 +33°C° 0 mm 3 mps 757 mmHg 60%
    21:00 +33°C° 0 mm 3 mps 757 mmHg 63%
    22:00 +31°C° 1.2 mm 3 mps 757 mmHg 66%
    23:00 +30°C° 1.2 mm 3 mps 757 mmHg 69%

    22 October, Sunday

    Time Temperature Precipitation Wind Pressure Humidity
    00:00 +30°C° 1.2 mm 3 mps 757 mmHg 72%
    01:00 +30°C° 0.2 mm 2 mps 757 mmHg 73%
    02:00 +29°C° 0.2 mm 2 mps 756 mmHg 74%
    03:00 +29°C° 0.2 mm 1 mps 756 mmHg 75%
    04:00 +29°C° 0 mm 1 mps 756 mmHg 75%
    05:00 +29°C° 0 mm 1 mps 757 mmHg 76%
    06:00 +29°C° 0 mm 1 mps 757 mmHg 77%
    07:00 +31°C° 0.2 mm 1 mps 757 mmHg 69%
    08:00 +31°C° 0.2 mm 0 mps 758 mmHg 61%
    09:00 +33°C° 0.2 mm 0 mps 758 mmHg 52%
    10:00 +35°C° 0.1 mm 1 mps 758 mmHg 49%
    11:00 +36°C° 0.1 mm 1 mps 757 mmHg 46%
    12:00 +38°C° 0.1 mm 2 mps 757 mmHg 42%
    13:00 +38°C° 0 mm 2 mps 756 mmHg 43%
    14:00 +37°C° 0 mm 2 mps 756 mmHg 44%
    15:00 +37°C° 0 mm 2 mps 755 mmHg 45%
    16:00 +36°C° 0.1 mm 2 mps 755 mmHg 49%
    17:00 +35°C° 0.1 mm 2 mps 756 mmHg 53%
    18:00 +34°C° 0.1 mm 2 mps 756 mmHg 57%
    19:00 +34°C° 0.4 mm 2 mps 757 mmHg 60%
    20:00 +32°C° 0.4 mm 2 mps 757 mmHg 63%
    21:00 +31°C° 0.4 mm 3 mps 758 mmHg 66%
    22:00 +31°C° 0.4 mm 3 mps 758 mmHg 69%
    23:00 +30°C° 0.4 mm 3 mps 757 mmHg 71%

    23 October, Monday

    Time Temperature Precipitation Wind Pressure Humidity
    00:00 +30°C° 0.4 mm 3 mps 757 mmHg 74%
    01:00 +30°C° 0 mm 2 mps 757 mmHg 75%
    02:00 +30°C° 0 mm 2 mps 757 mmHg 76%
    03:00 +29°C° 0 mm 2 mps 756 mmHg 77%
    04:00 +29°C° 0 mm 1 mps 757 mmHg 78%
    05:00 +29°C° 0 mm 1 mps 757 mmHg 78%
    06:00 +29°C° 0 mm 1 mps 758 mmHg 79%
    07:00 +31°C° 1 mm 1 mps 758 mmHg 72%
    08:00 +32°C° 1 mm 1 mps 759 mmHg 64%
    09:00 +34°C° 1 mm 1 mps 759 mmHg 57%
    10:00 +35°C° 0.3 mm 1 mps 759 mmHg 51%
    11:00 +36°C° 0.3 mm 1 mps 758 mmHg 45%
    12:00 +39°C° 0.3 mm 1 mps 758 mmHg 40%
    13:00 +38°C° 0 mm 2 mps 757 mmHg 41%
    14:00 +38°C° 0 mm 2 mps 757 mmHg 42%
    15:00 +37°C° 0 mm 3 mps 756 mmHg 43%
    16:00 +36°C° 0 mm 3 mps 756 mmHg 46%
    17:00 +35°C° 0 mm 3 mps 757 mmHg 49%
    18:00 +35°C° 0 mm 3 mps 757 mmHg 52%
    19:00 +34°C° 0 mm 3 mps 757 mmHg 56%
    20:00 +33°C° 0 mm 3 mps 758 mmHg 59%
    21:00 +33°C° 0 mm 3 mps 758 mmHg 62%
    22:00 +31°C° 0 mm 3 mps 758 mmHg 66%
    23:00 +31°C° 0 mm 3 mps 758 mmHg 69%
    Show more